sat.trackr.live / text

‹ back to catalog

IHOPSAT-TD

NORAD 44859 · 2019-089H

PAYLOAD ACTIVE UNKNOWN

§ Identity

Operator
Country
US
Launch date
2019-12-11
Launch site
SRILR
Launch vehicle
Mass (kg)
RCS (m²)

External: N2YO · Heavens-Above · Gunter

§ Orbital elements

Epoch: 2026-09-20T02:36:34.396416Z

Period
95.22 min
Inclination
36.9661°
Eccentricity
0.0006178
Mean motion
15.12239735 rev/d
Perigee alt
525.1 km
Apogee alt
533.6 km
Semi-major
6,907.5 km
B*
1.1332e-4
RAAN
186.0663°
Arg perigee
296.7882°
Mean anomaly
63.2232°
Rev number
37,236

§ Raw data

IHOPSAT-TD1 44859U 19089H   26263.10873144  .00001911  00000+0  11332-3 0  99982 44859  36.9661 186.0663 0006178 296.7882  63.2232 15.12239735372364

JSON: /api/v1/satellites/44859 · /tle

For live sub-satellite position, see the globe view (requires WebGL).

§ Visibility from observer

Set your observer location to see the next 7 days of passes ≥ 10°. The values pass through the URL so the page stays shareable.

No JS? Fill the form by hand. The geolocation button needs JavaScript.